Weather History for KFBL - June, 2013

Change the Weather History Date:

Saturday, June 15, 2013

  Actual Average Record
Temperature  
Mean Temperature 68 °F -  
Max Temperature 77 °F 78 °F 97 °F (1987)
Min Temperature 60 °F 56 °F 36 °F (1989)
Cooling Degree Days 4    
Growing Degree Days 18 (Base 50)    
Moisture  
Dew Point 65 °F    
Average Humidity 88    
Maximum Humidity 100    
Minimum Humidity 61    
Precipitation  
Precipitation 0.06 in - - ()
Sea Level Pressure  
Sea Level Pressure 29.90 in    
Wind  
Wind Speed 8 mph (South)    
Max Wind Speed 18 mph    
Max Gust Speed 24 mph    
Visibility 10 miles    
Events Fog , Rain , Thunderstorm    
Averages and records for this station are not official NWS values.
T = Trace of Precipitation, MM = Missing Value Source: NWS Daily Summary

Daily Weather History Graph

Daily Weather History Graph

Search for Another Location

Airport or City:

Trip Planner

Search our weather history database for the weather conditions in past years. The results will help you decide how hot, cold, wet, or windy it might be!

Date:

Astronomy

Jun. 15, 2013 Rise Set
Actual Time 5:28 AM CDT 8:59 PM CDT
Civil Twilight 4:51 AM CDT 9:35 PM CDT
Nautical Twilight 4:03 AM CDT 10:24 PM CDT
Astronomical Twilight 3:01 AM CDT 11:26 PM CDT
Moon 12:17 PM CDT (6/15) 12:22 AM CDT (6/15)
Length of Visible Light 16h 44m
Length of Day
15h 30m
Waxing Crescent, 40% of the Moon is Illuminated
Jun 15
Waxing Crescent
Jun 16
First Quarter
Jun 23
Full
Jun 29
Last Quarter
Jul 8
New

Hourly Weather History & Observations

Time (CDT) Temp. Dew Point Humidity Pressure Visibility Wind Dir Wind Speed Gust Speed Precip Events Conditions
12:14 AM 64.4 °F 62.6 °F 94% 29.95 in 7.0 mi South 16.1 mph 23.0 mph 0.01 in Rain , Thunderstorm Light Thunderstorms and Rain
12:34 AM 64.4 °F 62.6 °F 94% 29.94 in 10.0 mi SSE 6.9 mph - 0.05 in Rain , Thunderstorm Light Thunderstorms and Rain
12:53 AM 64.4 °F 62.6 °F 94% 29.93 in 10.0 mi SSE 8.1 mph 11.5 mph 0.05 in Rain Light Rain
1:14 AM 64.4 °F 62.6 °F 94% 29.92 in 10.0 mi SE 8.1 mph - N/A Rain , Thunderstorm Light Thunderstorms and Rain
1:34 AM 64.4 °F 62.6 °F 94% 29.92 in 10.0 mi SE 9.2 mph - 0.01 in Rain , Thunderstorm Light Thunderstorms and Rain
1:54 AM 64.4 °F 64.4 °F 100% 29.92 in 10.0 mi SSE 8.1 mph - 0.01 in Thunderstorm Overcast
2:14 AM 64.4 °F 64.4 °F 100% 29.91 in 10.0 mi SSE 5.8 mph - N/A Thunderstorm Overcast
2:34 AM 64.4 °F 64.4 °F 100% 29.91 in 10.0 mi SSE 8.1 mph - N/A   Overcast
2:54 AM 64.4 °F 64.4 °F 100% 29.91 in 10.0 mi South 9.2 mph - N/A Thunderstorm Overcast
3:14 AM 64.4 °F 64.4 °F 100% 29.90 in 10.0 mi South 10.4 mph - N/A   Overcast
3:34 AM 64.4 °F 64.4 °F 100% 29.90 in 10.0 mi South 6.9 mph - N/A   Mostly Cloudy
3:54 AM 64.4 °F 64.4 °F 100% 29.89 in 10.0 mi South 6.9 mph - N/A   Scattered Clouds
4:13 AM 64.4 °F 64.4 °F 100% 29.88 in 10.0 mi South 3.5 mph - N/A   Scattered Clouds
4:34 AM 64.4 °F 64.4 °F 100% 29.88 in 10.0 mi South 3.5 mph - N/A   Scattered Clouds
4:54 AM 64.4 °F 64.4 °F 100% 29.89 in 10.0 mi South 5.8 mph - N/A   Scattered Clouds
5:14 AM 64.4 °F 64.4 °F 100% 29.89 in 10.0 mi South 5.8 mph - N/A   Mostly Cloudy
5:34 AM 64.4 °F 64.4 °F 100% 29.89 in 10.0 mi SSE 4.6 mph - N/A   Mostly Cloudy
5:54 AM 64.4 °F 64.4 °F 100% 29.89 in 10.0 mi South 3.5 mph - N/A   Mostly Cloudy
6:14 AM 64.4 °F 64.4 °F 100% 29.89 in 10.0 mi Calm Calm - N/A   Overcast
6:34 AM 64.4 °F 64.4 °F 100% 29.89 in 7.0 mi Calm Calm - N/A   Mostly Cloudy
6:54 AM 64.4 °F 64.4 °F 100% 29.90 in 7.0 mi SE 4.6 mph - N/A   Mostly Cloudy
7:14 AM 66.2 °F 64.4 °F 94% 29.90 in 10.0 mi SE 4.6 mph - N/A   Scattered Clouds
7:34 AM 66.2 °F 64.4 °F 94% 29.89 in 10.0 mi SE 5.8 mph - N/A   Clear
7:54 AM 69.8 °F 66.2 °F 88% 29.90 in 10.0 mi SSE 5.8 mph - N/A   Clear
8:14 AM 69.8 °F 66.2 °F 88% 29.91 in 10.0 mi South 6.9 mph - N/A   Clear
8:34 AM 71.6 °F 66.2 °F 83% 29.91 in 10.0 mi SSE 11.5 mph 16.1 mph N/A   Clear
8:54 AM 71.6 °F 66.2 °F 83% 29.92 in 10.0 mi South 11.5 mph - N/A   Scattered Clouds
9:14 AM 69.8 °F 66.2 °F 88% 29.92 in 10.0 mi SSE 10.4 mph - N/A   Mostly Cloudy
9:34 AM 71.6 °F 66.2 °F 83% 29.92 in 10.0 mi South 8.1 mph - N/A   Mostly Cloudy
9:53 AM 71.6 °F 66.2 °F 83% 29.91 in 10.0 mi South 9.2 mph - N/A   Scattered Clouds
10:14 AM 71.6 °F 66.2 °F 83% 29.92 in 10.0 mi South 8.1 mph - N/A   Mostly Cloudy
10:34 AM 73.4 °F 66.2 °F 78% 29.91 in 10.0 mi SSW 6.9 mph - N/A   Mostly Cloudy
10:54 AM 75.2 °F 68.0 °F 78% 29.91 in 10.0 mi SSW 4.6 mph - N/A   Scattered Clouds
11:14 AM 75.2 °F 66.2 °F 73% 29.90 in 10.0 mi South 6.9 mph - N/A   Clear
11:34 AM 77.0 °F 68.0 °F 74% 29.91 in 10.0 mi South 9.2 mph - N/A   Scattered Clouds
11:54 AM 75.2 °F 66.2 °F 73% 29.93 in 10.0 mi South 10.4 mph 16.1 mph N/A   Clear
12:14 PM 75.2 °F 66.2 °F 73% 29.94 in 10.0 mi SSW 9.2 mph - N/A   Clear
12:34 PM 73.4 °F 66.2 °F 78% 29.94 in 10.0 mi South 10.4 mph - N/A Thunderstorm Scattered Clouds
12:54 PM 73.4 °F 68.0 °F 83% 29.92 in 10.0 mi South 8.1 mph 16.1 mph N/A Thunderstorm Clear
1:14 PM 73.4 °F 68.0 °F 83% 29.92 in 10.0 mi South 6.9 mph - N/A Thunderstorm Clear
1:34 PM 71.6 °F 66.2 °F 83% 29.92 in 10.0 mi SSW 9.2 mph 16.1 mph N/A   Clear
1:54 PM 71.6 °F 66.2 °F 83% 29.90 in 10.0 mi South 9.2 mph - N/A Rain Light Rain
2:14 PM 69.8 °F 66.2 °F 88% 29.87 in 10.0 mi South 9.2 mph - N/A Rain Light Rain
2:34 PM 69.8 °F 66.2 °F 88% 29.91 in 10.0 mi WNW 9.2 mph - N/A   Light Drizzle
2:54 PM 69.8 °F 66.2 °F 88% 29.91 in 10.0 mi West 18.4 mph 21.9 mph N/A   Mostly Cloudy
3:14 PM 69.8 °F 68.0 °F 94% 29.91 in 10.0 mi West 13.8 mph 24.2 mph N/A Thunderstorm Unknown
3:34 PM 69.8 °F 66.2 °F 88% 29.89 in 10.0 mi South 3.5 mph - N/A   Light Drizzle
3:54 PM 69.8 °F 68.0 °F 94% 29.88 in 7.0 mi South 8.1 mph - N/A Rain Light Rain
4:14 PM 71.6 °F 66.2 °F 83% 29.86 in 10.0 mi SW 4.6 mph - N/A   Clear
4:34 PM 73.4 °F 66.2 °F 78% 29.85 in 10.0 mi NW 5.8 mph - N/A   Clear
4:54 PM 73.4 °F 64.4 °F 73% 29.85 in 10.0 mi NNW 9.2 mph - N/A   Clear
5:14 PM 73.4 °F 64.4 °F 73% 29.86 in 10.0 mi NW 10.4 mph 16.1 mph N/A   Clear
5:34 PM 75.2 °F 62.6 °F 65% 29.86 in 10.0 mi NW 11.5 mph 19.6 mph N/A   Clear
5:54 PM 77.0 °F 62.6 °F 61% 29.86 in 10.0 mi NNW 11.5 mph 17.3 mph N/A   Clear
6:13 PM 75.2 °F 62.6 °F 65% 29.87 in 10.0 mi NW 10.4 mph 20.7 mph N/A   Clear
6:34 PM 75.2 °F 64.4 °F 69% 29.87 in 10.0 mi NW 8.1 mph - N/A   Clear
6:54 PM 73.4 °F 62.6 °F 69% 29.87 in 10.0 mi WNW 8.1 mph - N/A   Clear
7:14 PM 75.2 °F 62.6 °F 65% 29.88 in 10.0 mi West 5.8 mph - N/A   Clear
7:34 PM 73.4 °F 64.4 °F 73% 29.87 in 10.0 mi West 4.6 mph - N/A   Clear
7:54 PM 73.4 °F 64.4 °F 73% 29.88 in 10.0 mi North 3.5 mph - N/A   Clear
8:14 PM 73.4 °F 64.4 °F 73% 29.88 in 10.0 mi Calm Calm - N/A   Clear
8:34 PM 71.6 °F 64.4 °F 78% 29.88 in 10.0 mi Calm Calm - N/A   Clear
8:53 PM 68.0 °F 64.4 °F 88% 29.89 in 10.0 mi Calm Calm - N/A   Clear
9:14 PM 66.2 °F 64.4 °F 94% 29.89 in 10.0 mi Calm Calm - N/A   Clear
9:34 PM 64.4 °F 64.4 °F 100% 29.90 in 10.0 mi Calm Calm - N/A   Clear
9:54 PM 64.4 °F 62.6 °F 94% 29.90 in 10.0 mi Calm Calm - N/A   Clear
10:14 PM 62.6 °F 62.6 °F 100% 29.91 in 10.0 mi Calm Calm - N/A   Clear
10:33 PM 62.6 °F 62.6 °F 100% 29.91 in 10.0 mi Calm Calm - N/A   Clear
10:54 PM 62.6 °F 62.6 °F 100% 29.91 in 10.0 mi Calm Calm - N/A   Clear
11:14 PM 62.6 °F 62.6 °F 100% 29.91 in 10.0 mi Calm Calm - N/A   Clear
11:34 PM 60.8 °F 60.8 °F 100% 29.91 in 4.0 mi Calm Calm - N/A   Clear
11:54 PM 60.8 °F 60.8 °F 100% 29.91 in 0.2 mi Calm Calm - N/A Fog Fog